M I D A S
Marine Information and Data Acquisition System
Tripno 2231 of the Zeeleeuw from 2011-09-19 08:00:00 to 2011-09-19 17:00:00
Back to CruiseResearch ActivitiesStationsMapUnderway DataData graphs

EquipmentUnitsComments
TimeDGPSUTC
LatitudeDGPSDM.mWGS84
LongitudeDGPSDM.mWGS84
SpeedMeteo Stationm/sRelative wind speed
DirectionMeteo StationdegRelative wind direction
TemperatureMeteo Stationdeg CelciusAir temperature
PressureMeteo StationPaAtmospheric pressure
HumidityMeteo Station%Relative humidity
Missing or incorrect values are displayed as -999
Metereological data collected by the RV Zeeleeuw from 2011-09-19 08:00:00 to 2011-09-19 17:00:00
Time Latitude Longitude Speed Direction Temperature Pressure Humidity
2011-09-19 08:02 51°18.028 2°51.33 -999 -999 -999 -999 -999
2011-09-19 08:04 51°18.31 2°50.988 -999 -999 -999 -999 -999
2011-09-19 08:06 51°18.437 2°50.881 -999 -999 -999 -999 -999
2011-09-19 08:08 51°18.519 2°50.948 -999 -999 -999 -999 -999
2011-09-19 08:10 51°18.529 2°50.97 -999 -999 -999 -999 -999
2011-09-19 08:12 51°18.52 2°50.984 -999 -999 -999 -999 -999
2011-09-19 08:14 51°18.511 2°50.996 -999 -999 -999 -999 -999
2011-09-19 08:16 51°18.501 2°51.009 -999 -999 -999 -999 -999
2011-09-19 08:18 51°18.495 2°51.022 -999 -999 -999 -999 -999
2011-09-19 08:20 51°18.486 2°51.034 -999 -999 -999 -999 -999
2011-09-19 08:22 51°18.477 2°51.045 -999 -999 -999 -999 -999
2011-09-19 08:24 51°18.469 2°51.055 -999 -999 -999 -999 -999
2011-09-19 08:26 51°18.458 2°51.065 -999 -999 -999 -999 -999
2011-09-19 08:28 51°18.446 2°51.076 -999 -999 -999 -999 -999
2011-09-19 08:30 51°18.435 2°51.085 -999 -999 -999 -999 -999
2011-09-19 08:32 51°18.433 2°51.1 -999 -999 -999 -999 -999
2011-09-19 08:34 51°18.536 2°51.443 -999 -999 -999 -999 -999
2011-09-19 08:36 51°18.655 2°52.046 -999 -999 -999 -999 -999
2011-09-19 08:38 51°18.788 2°52.638 -999 -999 -999 -999 -999
2011-09-19 08:40 51°18.913 2°53.241 -999 -999 -999 -999 -999
2011-09-19 08:42 51°19.037 2°53.824 -999 -999 -999 -999 -999
2011-09-19 08:44 51°19.163 2°54.411 -999 -999 -999 -999 -999
2011-09-19 08:46 51°19.284 2°55.007 -999 -999 -999 -999 -999
2011-09-19 08:48 51°19.406 2°55.596 -999 -999 -999 -999 -999
2011-09-19 08:50 51°19.527 2°56.177 -999 -999 -999 -999 -999
2011-09-19 08:52 51°19.65 2°56.772 -999 -999 -999 -999 -999
2011-09-19 08:54 51°19.776 2°57.355 -999 -999 -999 -999 -999
2011-09-19 08:56 51°19.878 2°57.946 -999 -999 -999 -999 -999
2011-09-19 08:58 51°19.975 2°58.527 -999 -999 -999 -999 -999
2011-09-19 09:00 51°20.074 2°59.11 -999 -999 -999 -999 -999
2011-09-19 09:02 51°20.17 2°59.699 -999 -999 -999 -999 -999
2011-09-19 09:04 51°20.268 3°0.271 -999 -999 -999 -999 -999
2011-09-19 09:06 51°20.368 3°0.845 -999 -999 -999 -999 -999
2011-09-19 09:08 51°20.464 3°1.415 -999 -999 -999 -999 -999
2011-09-19 09:10 51°20.555 3°1.995 -999 -999 -999 -999 -999
2011-09-19 09:12 51°20.619 3°2.35 -999 -999 -999 -999 -999
2011-09-19 09:14 51°20.681 3°2.432 -999 -999 -999 -999 -999
2011-09-19 09:16 51°20.722 3°2.551 -999 -999 -999 -999 -999
2011-09-19 09:18 51°20.728 3°2.527 -999 -999 -999 -999 -999
2011-09-19 09:20 51°20.707 3°2.497 -999 -999 -999 -999 -999
2011-09-19 09:22 51°20.681 3°2.46 -999 -999 -999 -999 -999
2011-09-19 09:24 51°20.655 3°2.422 -999 -999 -999 -999 -999
2011-09-19 09:26 51°20.629 3°2.383 -999 -999 -999 -999 -999
2011-09-19 09:28 51°20.602 3°2.346 -999 -999 -999 -999 -999
2011-09-19 09:30 51°20.648 3°2.38 -999 -999 -999 -999 -999
2011-09-19 09:32 51°20.764 3°2.61 -999 -999 -999 -999 -999
2011-09-19 09:34 51°20.867 3°3.124 -999 -999 -999 -999 -999
2011-09-19 09:36 51°20.979 3°3.65 -999 -999 -999 -999 -999
2011-09-19 09:38 51°21.093 3°4.178 -999 -999 -999 -999 -999
2011-09-19 09:40 51°21.237 3°4.688 -999 -999 -999 -999 -999
2011-09-19 09:42 51°21.404 3°5.197 -999 -999 -999 -999 -999
2011-09-19 09:44 51°21.567 3°5.697 -999 -999 -999 -999 -999
2011-09-19 09:46 51°21.741 3°6.201 -999 -999 -999 -999 -999
2011-09-19 09:48 51°21.911 3°6.723 -999 -999 -999 -999 -999
2011-09-19 09:50 51°22.025 3°7.264 -999 -999 -999 -999 -999
2011-09-19 09:52 51°22.118 3°7.818 -999 -999 -999 -999 -999
2011-09-19 09:54 51°22.167 3°8.385 -999 -999 -999 -999 -999
2011-09-19 09:56 51°22.226 3°8.927 -999 -999 -999 -999 -999
2011-09-19 09:58 51°22.265 3°9.49 -999 -999 -999 -999 -999
2011-09-19 10:00 51°22.312 3°10.059 -999 -999 -999 -999 -999
2011-09-19 10:02 51°22.352 3°10.642 -999 -999 -999 -999 -999
2011-09-19 10:04 51°22.393 3°11.219 -999 -999 -999 -999 -999
2011-09-19 10:06 51°22.434 3°11.798 -999 -999 -999 -999 -999
2011-09-19 10:08 51°22.486 3°12.379 -999 -999 -999 -999 -999
2011-09-19 10:10 51°22.55 3°12.862 -999 -999 -999 -999 -999
2011-09-19 10:12 51°22.582 3°13.1 -999 -999 -999 -999 -999
2011-09-19 10:14 51°22.616 3°13.264 -999 -999 -999 -999 -999
2011-09-19 10:16 51°22.625 3°13.245 -999 -999 -999 -999 -999
2011-09-19 10:18 51°22.621 3°13.21 -999 -999 -999 -999 -999
2011-09-19 10:20 51°22.615 3°13.18 -999 -999 -999 -999 -999
2011-09-19 10:22 51°22.607 3°13.15 -999 -999 -999 -999 -999
2011-09-19 10:24 51°22.593 3°13.118 -999 -999 -999 -999 -999
2011-09-19 10:26 51°22.583 3°13.086 -999 -999 -999 -999 -999
2011-09-19 10:28 51°22.645 3°13.011 -999 -999 -999 -999 -999
2011-09-19 10:30 51°22.784 3°12.595 -999 -999 -999 -999 -999
2011-09-19 10:32 51°22.993 3°12.01 -999 -999 -999 -999 -999
2011-09-19 10:34 51°23.205 3°11.412 -999 -999 -999 -999 -999
2011-09-19 10:36 51°23.422 3°10.818 -999 -999 -999 -999 -999
2011-09-19 10:38 51°23.636 3°10.204 -999 -999 -999 -999 -999
2011-09-19 10:40 51°23.95 3°9.806 -999 -999 -999 -999 -999
2011-09-19 10:42 51°24.315 3°9.485 -999 -999 -999 -999 -999
2011-09-19 10:44 51°24.591 3°9.056 -999 -999 -999 -999 -999
2011-09-19 10:46 51°24.608 3°8.388 -999 -999 -999 -999 -999
2011-09-19 10:48 51°24.695 3°7.73 -999 -999 -999 -999 -999
2011-09-19 10:50 51°24.851 3°7.118 -999 -999 -999 -999 -999
2011-09-19 10:52 51°25.178 3°6.813 -999 -999 -999 -999 -999
2011-09-19 10:54 51°25.496 3°7.087 -999 -999 -999 -999 -999
2011-09-19 10:56 51°25.766 3°7.504 -999 -999 -999 -999 -999
2011-09-19 10:58 51°26.046 3°7.89 -999 -999 -999 -999 -999
2011-09-19 11:00 51°26.347 3°8.235 -999 -999 -999 -999 -999
2011-09-19 11:02 51°26.442 3°8.341 -999 -999 -999 -999 -999
2011-09-19 11:04 51°26.425 3°8.346 -999 -999 -999 -999 -999
2011-09-19 11:06 51°26.4 3°8.349 -999 -999 -999 -999 -999
2011-09-19 11:08 51°26.372 3°8.351 -999 -999 -999 -999 -999
2011-09-19 11:10 51°26.342 3°8.355 -999 -999 -999 -999 -999
2011-09-19 11:12 51°26.31 3°8.359 -999 -999 -999 -999 -999
2011-09-19 11:14 51°26.279 3°8.363 -999 -999 -999 -999 -999
2011-09-19 11:16 51°26.288 3°8.374 -999 -999 -999 -999 -999
2011-09-19 11:18 51°26.398 3°8.151 -999 -999 -999 -999 -999
2011-09-19 11:20 51°26.526 3°7.745 -999 -999 -999 -999 -999
2011-09-19 11:22 51°26.704 3°7.192 -999 -999 -999 -999 -999
2011-09-19 11:24 51°26.891 3°6.627 -999 -999 -999 -999 -999
2011-09-19 11:26 51°27.077 3°6.071 -999 -999 -999 -999 -999
2011-09-19 11:28 51°27.265 3°5.495 -999 -999 -999 -999 -999
2011-09-19 11:30 51°27.458 3°4.929 -999 -999 -999 -999 -999
2011-09-19 11:32 51°27.672 3°4.383 -999 -999 -999 -999 -999
2011-09-19 11:34 51°27.905 3°3.861 -999 -999 -999 -999 -999
2011-09-19 11:36 51°28.182 3°3.402 -999 -999 -999 -999 -999
2011-09-19 11:38 51°28.275 3°3.393 -999 -999 -999 -999 -999
2011-09-19 11:40 51°28.289 3°3.449 -999 -999 -999 -999 -999
2011-09-19 11:42 51°28.274 3°3.44 -999 -999 -999 -999 -999
2011-09-19 11:44 51°28.251 3°3.422 -999 -999 -999 -999 -999
2011-09-19 11:46 51°28.223 3°3.403 -999 -999 -999 -999 -999
2011-09-19 11:48 51°28.191 3°3.387 -999 -999 -999 -999 -999
2011-09-19 11:50 51°28.156 3°3.375 -999 -999 -999 -999 -999
2011-09-19 11:52 51°28.121 3°3.363 -999 -999 -999 -999 -999
2011-09-19 11:54 51°28.087 3°3.349 -999 -999 -999 -999 -999
2011-09-19 11:56 51°28.055 3°3.338 -999 -999 -999 -999 -999
2011-09-19 11:58 51°28.023 3°3.327 -999 -999 -999 -999 -999
2011-09-19 13:00 51°18.529 2°52.621 -999 -999 -999 -999 -999
2011-09-19 13:02 51°18.148 2°52.31 -999 -999 -999 -999 -999
2011-09-19 13:04 51°17.764 2°52.021 -999 -999 -999 -999 -999
2011-09-19 13:06 51°17.372 2°51.736 -999 -999 -999 -999 -999
2011-09-19 13:08 51°16.993 2°51.435 -999 -999 -999 -999 -999
2011-09-19 13:10 51°16.626 2°51.099 -999 -999 -999 -999 -999
2011-09-19 13:12 51°16.26 2°50.765 -999 -999 -999 -999 -999
2011-09-19 13:14 51°15.896 2°50.409 -999 -999 -999 -999 -999
2011-09-19 13:16 51°15.588 2°49.982 -999 -999 -999 -999 -999
2011-09-19 13:18 51°15.297 2°49.503 -999 -999 -999 -999 -999
2011-09-19 13:20 51°15.074 2°48.955 -999 -999 -999 -999 -999
2011-09-19 13:22 51°14.894 2°48.381 -999 -999 -999 -999 -999
2011-09-19 13:24 51°14.703 2°47.807 -999 -999 -999 -999 -999
2011-09-19 13:26 51°14.521 2°47.214 -999 -999 -999 -999 -999
2011-09-19 13:28 51°14.33 2°46.642 -999 -999 -999 -999 -999
2011-09-19 13:30 51°14.136 2°46.079 -999 -999 -999 -999 -999
2011-09-19 13:32 51°13.817 2°45.697 -999 -999 -999 -999 -999
2011-09-19 13:34 51°13.452 2°45.399 -999 -999 -999 -999 -999
2011-09-19 13:36 51°13.145 2°44.981 -999 -999 -999 -999 -999
2011-09-19 13:38 51°12.87 2°44.507 -999 -999 -999 -999 -999
2011-09-19 13:40 51°12.587 2°44.057 -999 -999 -999 -999 -999
2011-09-19 13:42 51°12.315 2°43.596 -999 -999 -999 -999 -999
2011-09-19 13:44 51°12.036 2°43.151 -999 -999 -999 -999 -999
2011-09-19 13:46 51°11.75 2°42.723 -999 -999 -999 -999 -999
2011-09-19 13:48 51°11.466 2°42.307 -999 -999 -999 -999 -999
2011-09-19 13:50 51°11.104 2°42.329 -999 -999 -999 -999 -999
2011-09-19 13:52 51°11.04 2°42.216 -999 -999 -999 -999 -999
2011-09-19 13:54 51°11.09 2°42.026 -999 -999 -999 -999 -999
2011-09-19 13:56 51°11.121 2°42.003 -999 -999 -999 -999 -999
2011-09-19 13:58 51°11.13 2°42.074 -999 -999 -999 -999 -999
2011-09-19 14:00 51°11.143 2°42.15 -999 -999 -999 -999 -999
2011-09-19 14:02 51°11.156 2°42.222 -999 -999 -999 -999 -999
2011-09-19 14:04 51°11.169 2°42.299 -999 -999 -999 -999 -999
2011-09-19 14:06 51°11.18 2°42.378 -999 -999 -999 -999 -999
2011-09-19 14:08 51°11.192 2°42.464 -999 -999 -999 -999 -999
2011-09-19 14:10 51°11.212 2°42.553 -999 -999 -999 -999 -999
2011-09-19 14:12 51°11.4 2°42.909 -999 -999 -999 -999 -999
2011-09-19 14:14 51°11.456 2°43.588 -999 -999 -999 -999 -999
2011-09-19 14:16 51°11.529 2°44.298 -999 -999 -999 -999 -999
2011-09-19 14:18 51°11.583 2°44.999 -999 -999 -999 -999 -999
2011-09-19 14:20 51°11.678 2°45.708 -999 -999 -999 -999 -999
2011-09-19 14:22 51°11.762 2°46.409 -999 -999 -999 -999 -999
2011-09-19 14:24 51°11.852 2°47.105 -999 -999 -999 -999 -999
2011-09-19 14:26 51°12 2°47.771 -999 -999 -999 -999 -999
2011-09-19 14:28 51°12.21 2°48.4 -999 -999 -999 -999 -999
2011-09-19 14:30 51°12.413 2°49.048 -999 -999 -999 -999 -999
2011-09-19 14:32 51°12.638 2°49.667 -999 -999 -999 -999 -999
2011-09-19 14:34 51°12.865 2°50.294 -999 -999 -999 -999 -999
2011-09-19 14:36 51°13.102 2°50.919 -999 -999 -999 -999 -999
2011-09-19 14:38 51°13.332 2°51.529 -999 -999 -999 -999 -999
2011-09-19 14:40 51°13.577 2°52.155 -999 -999 -999 -999 -999
2011-09-19 14:42 51°13.836 2°52.755 -999 -999 -999 -999 -999
2011-09-19 14:44 51°14.121 2°53.333 -999 -999 -999 -999 -999
2011-09-19 14:46 51°14.38 2°53.946 -999 -999 -999 -999 -999
2011-09-19 14:48 51°14.624 2°54.527 -999 -999 -999 -999 -999
2011-09-19 14:50 51°14.489 2°55.092 -999 -999 -999 -999 -999
2011-09-19 14:52 51°14.202 2°55.357 -999 -999 -999 -999 -999
2011-09-19 14:54 51°13.98 2°55.524 -999 -999 -999 -999 -999